Regional Weather Roundup
Issued by NWS

Home | Current Version | Previous Version | Text Only | Print | Product List | Glossary Off
Versions: 1 2 3 4 5 6 7 8 9 10 11 12 13 14 15 16 17 18 19 20 21 22 23 24 25 26 27 28 29 30 31 32 33 34 35 36 37 38 39 40 41 42 43 44 45 46 47 48 49 50

000
ASUS43 KMPX 181310
RWRMN
WEATHER ROUNDUP FOR MINNESOTA
NATIONAL WEATHER SERVICE TWIN CITIES/CHANHASSEN MN
800 AM CDT WED OCT 18 2017


NOTE: "FAIR" INDICATES FEW OR NO CLOUDS BELOW 12,000 FEET WITH NO
SIGNIFICANT WEATHER AND/OR OBSTRUCTIONS TO VISIBILITY. N/A MEANS
CURRENT SKY AND/OR WEATHER CONDITIONS ARE NOT AVAILABLE.

MNZ060>063-068>070-181400-
   Twin Cities Metro

CITY           SKY/WX    TMP DP  RH WIND       PRES   REMARKS
TWIN CITIES    PTCLDY    50  46  86 SE8       29.81F
ST PAUL        CLEAR     48  46  93 SE5       29.83F
CRYSTAL        CLEAR     49  42  77 S7        29.80R
BLAINE         PTCLDY    52  45  76 S10       29.79F
LAKEVILLE      CLEAR     48  45  87 S9        29.82F
EDEN PRAIRIE   CLEAR     52  45  77 S12       29.80F
SOUTH ST PAUL  CLEAR     49  44  85 S5        29.82F
LAKE ELMO      FAIR      50  45  81 S9        29.83F
$$
MNZ001>005-007-008-013>017-022>024-027-028-181400-
   Northwest Minnesota

CITY           SKY/WX    TMP DP  RH WIND       PRES   REMARKS
BEMIDJI        CLOUDY    54  39  57 SW7       29.63F
HALLOCK        CLOUDY    57  36  44 W20       29.57R
ROSEAU         CLOUDY    55  39  54 SW14G22   29.52S
WARROAD        PTCLDY    57  39  51 SW14G21   29.51S
THIEF RVR FALL CLOUDY    52  37  56 SW12      29.61S
CROOKSTON      CLOUDY    48  39  71 SW9       29.64R
FOSSTON        CLOUDY    52  37  58 SW9       29.66S
DETROIT LAKES  CLOUDY    55  41  58 W10       29.70R
MOORHEAD       CLOUDY    48  39  71 SW6       29.71R
PARK RAPIDS    CLOUDY    48  41  76 SE5       29.67R
MAHNOMEN       FAIR      49  40  69 SW9       29.68R
$$
MNZ006-009>011-018-025>026-181400-
   North Central Minnesota

CITY           SKY/WX    TMP DP  RH WIND       PRES   REMARKS
BAUDETTE       CLOUDY    59  38  45 SW10G25   29.53S
FLAG ISLAND    CLOUDY    57  37  47 SW20      29.45S
INTL FALLS     CLOUDY    59  38  45 SW13      29.54R
WASKISH        MOCLDY    57  39  51 SW13      29.59R
BIG FORK       CLOUDY    55  39  54 S9        29.62R
LONGVILLE      CLOUDY    54  41  62 S10G16    29.62F
GRAND RAPIDS   CLEAR     51  41  68 S13       29.64F
CRANE LAKE     CLOUDY    55  37  50 S9        29.57F
ORR            CLOUDY    55  36  47 S7        29.56F
COOK           CLEAR     55  39  54 S10G21    29.60F
WALKER         FAIR      54  40  59 SW12G18   29.64R
$$
MNZ012-019>021-037-181400-
   Northeast Minnesota

CITY           SKY/WX    TMP DP  RH WIND       PRES   REMARKS
DULUTH         CLEAR     52  43  71 SW14      29.73S
ELY            CLEAR     57  37  47 S8        29.66F
HIBBING        CLEAR     47  39  74 S6        29.65F
EVELETH        CLEAR     50  43  77 S6        29.68F
DULUTH HARBOR  PTCLDY    54  46  76 W9        29.74S
TWO HARBORS    CLEAR     46  43  87 W3        29.72S
SILVER BAY     CLOUDY    36  36 100 CALM      29.71F
GRAND MARAIS     N/A     44  43  96 CALM      29.73F
G MARAIS ARPRT CLOUDY    48  39  71 S6        29.73F
$$
MNZ029>031-032-039>041-046>048-054>057-064-181400-
   West Central Minnesota

CITY           SKY/WX    TMP DP  RH WIND       PRES   REMARKS
FERGUS FALLS   CLOUDY    48  41  76 W5        29.73R
WHEATON        CLOUDY    48  41  76 W6        29.73R
MORRIS         CLOUDY    46  43  87 S10       29.67F
ALEXANDRIA     CLOUDY    55  43  63 S15       29.69F
ELBOW LAKE     FAIR      48  42  81 SW6       29.73R
WADENA         CLOUDY    54  43  66 W6G16     29.70R
GLENWOOD       CLOUDY    52  43  71 S14       29.71F
APPLETON       CLOUDY    52  43  71 SE5       29.68F
BENSON         CLOUDY    46  41  81 CALM      29.72S
ORTONVILLE     CLOUDY    54  41  62 NW6       29.67F
MADISON        CLEAR     57  45  62 SW7       29.69F
WILLMAR        FAIR      52  45  76 S7        29.73F
$$
MNZ033>034-036-042>043-049>051-058-059-181400-
   Central Minnesota

CITY           SKY/WX    TMP DP  RH WIND       PRES   REMARKS
ST CLOUD       CLEAR     47  44  90 S8        29.74F
SAUK CENTRE    FAIR      47  42  81 E5        29.71F
PAYNESVILLE    CLEAR     51  44  78 S6        29.74R
AITKIN         CLEAR     52  43  71 S12       29.66F
PINE RIVER     CLOUDY    45  39  81 SE5       29.69F
BRAINERD       CLEAR     52  41  66 S12       29.69F
STAPLES        CLOUDY    54  41  62 S12       29.66F
LONG PRAIRIE   FAIR      50  41  71 SE9       29.70F
LITTLE FALLS   CLEAR     46  36  66 SE6       29.72S
LITCHFIELD     CLOUDY    52  46  82 S5        29.75F
BUFFALO        CLEAR     50  43  78 S6        29.78F
MAPLE LAKE     CLEAR     49  46  87 S8        29.76F
HUTCHINSON     CLOUDY    48  45  89 SE5       29.76F
$$
MNZ037-044-045-052-053-181400-
   East Central Minnesota

CITY           SKY/WX    TMP DP  RH WIND       PRES   REMARKS
PRINCETON      CLEAR     52  45  76 S7        29.76F
MORA           CLEAR     46  41  81 S5        29.78S
CAMBRIDGE      CLEAR     52  41  66 S8        29.78S
RUSH CITY      PTCLDY    48  44  84 S7        29.78S
MOOSE LAKE     CLEAR     46  43  87 S5        29.72F
HINCKLEY       FAIR      46  45  93 S6        29.78R
CLOQUET        CLEAR     52  41  66 S9        29.72F
MCGREGOR       CLEAR     48  43  81 S9        29.69F
$$
MNZ071>073-080-081-089-090-097-098-181400-
   Southwest Minnesota

CITY           SKY/WX    TMP DP  RH WIND       PRES   REMARKS
MONTEVIDEO     CLOUDY    52  43  71 SW7       29.71F
GRANITE FALLS  CLOUDY    49  45  84 S7        29.74S
CANBY          CLEAR     58  43  56 SW15G22   29.71F
MARSHALL       CLEAR     55  44  66 SW17      29.72F
REDWOOD FALLS  CLEAR     49  43  80 S8        29.74F
OLIVIA         CLEAR     50  45  81 S8        29.73F
PIPESTONE      CLEAR     48  43  81 S5        29.78S
WORTHINGTON    CLEAR     51  44  77 S13       29.79F
JACKSON        CLEAR     46  43  87 S12       29.82F
TRACY          CLOUDY    55  46  74 SW17      29.75S
SLAYTON        CLOUDY    51  41  68 S15       29.78S
$$
MNZ065>067-074>077-082>085-091>093-181400-
   South Central Minnesota

CITY           SKY/WX    TMP DP  RH WIND       PRES   REMARKS
MANKATO        CLEAR     48  44  86 S10       29.83F
NEW ULM          N/A     46  43  87 S12       29.78F
ST JAMES       CLEAR     46  43  87 S13       29.81F
FAIRMONT       CLEAR     46  43  89 S12       29.84F
GLENCOE        CLEAR     49  45  84 S8        29.77F
FARIBAULT      CLEAR     48  45  87 S12       29.84F
OWATONNA       CLEAR     48  45  87 S13G21    29.85F
WASECA         CLEAR     52  46  82 S10G17    29.86F
ALBERT LEA     CLEAR     52  46  82 S8        29.88F
$$
MNZ078>079-086>088-094>096-181400-
   Southeast Minnesota

CITY           SKY/WX    TMP DP  RH WIND       PRES   REMARKS
ROCHESTER      CLEAR     48  45  89 S14       29.90F
RED WING       CLEAR     52  43  71 SE7       29.85F
STANTON        CLEAR     50  45  82 S9        29.82F
DODGE CENTER   CLEAR     48  45  87 S15       29.88S
WINONA         CLEAR     52  45  76 CALM      29.92F
AUSTIN         CLEAR     46  43  87 S9        29.90S
PRESTON        CLEAR     47  43  87 S12       29.93F
$$
ABBREVIATIONS USED IN REMARKS
   TC - TEMPERATURES IN CELSIUS
  WCI - WIND CHILL INDEX
   HX - HEAT INDEX
  VSB - VISIBILITY
$$




USA.gov is the U.S. government's official web portal to all federal, state and local government web resources and services.